Wind_Speed
21 21 22 22 21 21 21 21 20 19 19 19 20 19 18 18 17 17 17 17 16 16 16 16 16 16 16 16 16 16 16 17 16 16 17 17 17 17 17 17 16 16 16 16
23 22 23 23 22 22 22 22 21 20 20 20 21 20 19 18 18 18 18 18 17 17 17 16 16 16 17 17 17 17 16 16 17 17 17 17 17 17 18 17 17 17 17 17
23 23 23 24 23 24 24 23 22 21 20 21 21 20 20 20 20 19 19 19 18 17 17 17 16 17 17 17 17 17 17 17 17 18 18 18 18 19 19 18 18 18 18 18
23 24 25 24 23 23 24 24 23 22 21 21 21 21 20 20 20 20 20 19 19 18 17 17 17 17 17 17 17 18 18 17 18 18 19 19 19 20 20 19 19 19 18 18
25 26 26 25 24 23 23 24 23 23 22 22 22 21 21 20 20 20 20 20 19 18 18 17 17 17 16 17 17 17 18 18 18 18 19 19 19 19 19 19 19 19 18 19
25 25 26 25 24 24 24 24 23 23 23 23 22 23 21 21 21 21 20 20 20 19 18 18 18 17 17 17 17 18 18 19 19 19 19 19 18 18 19 19 19 19 19 19
26 26 26 24 22 23 25 23 23 24 24 24 23 23 22 23 23 22 21 21 20 20 19 19 19 19 19 19 18 18 18 17 18 18 18 18 18 18 19 19 19 19 19 19
26 27 27 25 23 23 24 24 25 25 24 24 24 24 24 24 23 22 22 21 21 20 20 20 20 20 20 20 19 19 19 19 19 19 19 19 19 18 18 18 18 18 19 19
26 27 27 26 25 25 26 26 25 25 24 24 25 24 24 24 24 24 23 23 22 21 21 21 21 21 21 20 20 20 20 20 20 20 20 19 19 19 20 20 19 19 19 19
27 28 28 26 26 26 27 27 26 25 25 24 24 24 24 24 24 24 24 23 23 23 22 21 21 21 21 21 21 20 20 21 21 21 21 21 21 20 20 20 20 20 20 19
29 28 28 27 26 27 28 28 27 27 26 25 25 25 25 25 24 24 24 24 23 23 23 22 22 22 21 21 21 20 20 21 21 22 22 22 22 21 21 21 22 21 21 20
30 30 30 29 28 28 28 28 27 27 27 26 26 25 25 25 24 24 24 24 24 24 24 23 23 22 22 22 21 21 21 20 21 21 21 22 22 22 23 23 23 22 22 22
30 31 31 30 30 28 27 27 27 27 27 26 26 26 25 25 24 24 23 23 23 24 24 24 23 23 23 23 22 22 21 21 20 20 21 22 22 22 22 23 24 24 24 23
31 30 30 30 29 28 28 28 27 27 27 27 27 26 25 25 24 24 24 23 23 23 24 24 23 23 23 23 23 23 22 22 22 21 21 21 22 22 23 23 23 24 24 24
30 29 29 29 27 27 27 27 27 27 27 27 26 26 25 25 24 24 24 24 24 24 24 24 24 24 24 24 24 24 23 23 23 23 23 22 23 23 23 23 23 23 23 24
28 29 28 28 28 27 27 27 26 26 26 26 26 26 26 25 25 25 25 25 24 24 24 24 24 25 25 25 25 25 25 25 25 24 24 23 23 23 24 24 24 24 24 25
28 27 28 29 28 27 27 27 26 26 25 25 26 26 26 26 26 25 25 25 25 24 24 24 24 24 24 25 25 25 25 25 26 25 25 24 24 24 25 25 25 26 26 26
28 28 28 29 28 27 27 27 27 27 27 26 26 27 27 27 26 25 25 25 25 25 25 24 25 25 25 25 26 26 26 26 26 25 25 26 26 26 26 26 27 27 28 28
27 27 27 28 29 29 28 28 27 27 27 26 27 27 27 26 26 26 25 25 25 25 25 25 26 26 26 26 26 27 27 27 26 26 26 27 27 28 28 28 28 28 29 29
28 27 27 27 29 29 29 28 28 28 27 26 26 26 27 27 27 26 26 26 25 26 26 26 26 27 27 26 27 27 28 27 27 27 27 27 28 28 29 29 29 30 30 31
28 28 27 27 28 29 29 28 28 28 28 28 28 28 28 27 27 27 27 27 26 26 27 27 27 27 27 27 28 28 28 28 28 28 28 29 29 29 30 30 31 31 31 31
28 27 27 27 28 29 29 29 29 29 30 29 29 28 28 27 27 27 27 27 26 27 27 27 27 28 28 29 29 29 29 29 29 29 29 29 30 30 31 31 31 31 32 32
27 26 26 27 28 28 28 28 28 29 29 29 29 28 27 27 27 27 26 26 27 27 27 27 27 27 28 29 29 29 29 29 29 29 29 30 31 31 31 31 32 32 33 33
27 26 26 26 27 27 27 28 28 29 29 28 28 28 28 27 27 26 26 26 26 27 27 27 27 27 27 28 28 28 29 29 30 30 31 31 31 32 32 32 32 33 34 35
26 27 27 27 27 27 27 27 28 28 28 27 27 28 28 28 27 27 27 27 27 27 27 27 27 27 28 28 28 29 29 30 31 31 31 32 32 32 33 33 34 35 35 35
26 27 27 28 28 28 28 27 27 27 27 27 27 28 28 28 28 28 28 28 28 28 28 29 29 29 29 29 29 29 29 30 30 31 32 32 33 33 34 34 34 35 35 35
27 26 27 29 29 28 28 27 27 28 28 28 28 28 28 28 28 28 29 29 29 29 29 29 29 29 29 30 30 30 30 30 31 31 32 32 33 34 34 34 35 35 36 36
Wind_Direction
249 250 251 250 251 250 247 247 250 253 255 256 258 262 264 265 267 268 268 267 267 268 270 269 267 264 263 263 261 260 260 259 259 261 257 254 258 261 263 264 265 266 267 269
251 251 251 249 249 251 249 249 252 254 253 256 260 262 263 264 265 265 267 268 268 268 270 271 269 265 263 263 260 258 259 259 258 258 255 255 258 261 261 264 265 265 267 269
250 250 252 251 252 253 253 252 254 256 256 257 261 262 264 263 263 264 266 269 269 269 269 269 268 266 263 262 258 255 255 256 257 254 253 254 257 261 262 265 266 265 267 268
250 249 252 255 255 253 252 251 252 254 257 260 262 261 261 261 262 265 267 268 267 267 268 268 268 266 265 263 260 258 257 255 256 255 254 256 257 259 261 264 266 265 264 265
249 249 251 252 254 252 252 252 252 254 257 259 261 259 259 262 263 266 268 268 267 268 267 267 268 267 267 266 263 262 260 258 257 255 256 257 258 259 261 264 265 265 265 264
248 251 252 251 252 253 256 254 252 255 257 258 258 257 257 260 262 264 266 268 268 267 266 267 267 265 265 267 266 265 262 258 256 256 257 259 259 261 261 264 265 266 266 267
247 251 253 252 252 250 252 253 256 257 256 257 259 259 258 259 261 263 265 268 268 267 267 267 267 267 265 266 267 263 260 257 256 256 257 258 258 263 263 264 266 268 268 270
248 250 251 252 252 250 252 254 256 256 256 257 260 260 260 262 263 264 264 265 265 264 265 266 267 266 266 266 264 261 260 260 259 257 259 259 258 262 262 263 266 270 271 270
249 251 252 252 252 250 250 252 254 253 253 256 257 259 260 261 264 265 264 263 263 262 263 264 265 265 265 265 264 262 258 258 259 258 260 260 259 261 262 262 264 268 273 275
250 250 252 252 252 251 251 252 253 253 253 254 256 257 259 260 262 264 263 261 261 260 260 262 262 263 264 265 265 264 261 258 258 257 259 258 258 262 262 262 264 268 272 276
250 250 249 250 252 250 251 252 252 253 253 255 256 258 259 260 261 263 264 262 260 259 258 258 260 262 263 263 264 264 264 261 260 259 258 258 259 262 263 263 265 268 271 274
251 249 249 249 250 249 249 251 252 253 253 255 257 258 258 259 260 262 264 263 260 258 257 258 259 261 263 263 264 263 263 263 261 259 258 259 260 262 264 264 264 265 269 273
251 249 248 248 249 248 249 250 252 254 254 255 256 256 256 258 259 261 263 262 260 259 257 257 258 259 261 262 263 263 263 264 264 262 261 262 262 263 265 265 265 266 269 272
251 250 247 247 248 248 250 251 252 252 252 254 256 256 256 257 259 261 262 262 261 260 259 258 257 258 260 260 261 262 263 264 265 265 265 265 264 265 266 266 267 267 268 271
248 248 247 245 245 247 249 250 251 251 251 252 254 255 256 257 259 261 261 261 261 260 261 261 259 258 258 258 259 260 261 263 265 266 267 267 267 267 267 267 267 268 270 273
247 247 246 244 244 245 246 247 248 249 250 251 253 254 255 257 258 260 261 261 261 261 260 260 260 259 257 257 258 259 261 263 264 266 267 267 268 267 267 267 268 269 272 274
247 247 247 244 244 245 246 246 247 248 249 251 252 254 255 257 258 260 260 259 259 259 259 259 261 261 260 258 259 260 261 263 264 265 266 266 267 268 268 269 269 271 273 275
246 247 249 245 243 243 244 245 246 247 248 250 252 254 256 257 258 259 259 259 258 258 259 259 260 261 260 260 261 261 261 262 264 265 266 267 267 269 269 270 271 273 274 275
246 248 249 246 242 241 243 244 246 247 248 250 253 255 256 257 258 259 259 259 259 259 260 261 261 261 261 262 261 260 260 262 263 265 266 267 267 268 270 272 274 275 276 277
245 248 248 247 244 242 244 246 247 248 248 250 253 256 256 257 257 257 257 258 259 261 261 262 263 262 262 261 260 260 260 262 264 265 267 268 268 269 271 272 274 275 277 278
247 248 249 248 245 243 243 245 247 248 249 252 254 256 256 257 257 258 258 258 259 261 261 262 263 263 262 261 260 260 261 263 264 265 266 268 269 270 272 273 275 276 277 278
247 248 249 249 245 242 243 245 247 249 251 253 254 256 256 256 256 258 259 259 259 261 262 263 263 263 263 262 261 261 262 263 265 266 267 268 270 272 274 275 275 276 278 278
245 248 248 248 245 243 243 245 248 250 252 254 254 255 256 256 257 259 260 260 261 261 262 262 263 264 263 263 262 262 263 264 266 267 268 269 271 273 275 275 276 277 278 279
245 246 247 246 244 244 245 247 249 251 252 253 253 253 254 255 256 257 259 260 261 261 262 262 264 264 263 263 264 264 264 265 266 268 269 271 272 274 275 276 277 278 280 281
245 247 246 245 245 246 247 248 250 251 251 251 251 251 253 255 257 258 260 261 262 263 263 262 263 263 263 264 266 266 265 266 267 269 270 271 273 274 275 277 278 279 280 281
247 247 246 245 245 248 249 250 251 252 252 251 251 252 253 255 258 259 260 262 263 264 264 265 265 264 264 267 268 268 267 268 269 271 272 273 274 275 277 278 278 280 281 282
246 246 246 247 247 249 251 252 252 251 252 253 253 254 255 257 259 260 261 261 263 264 265 265 266 266 266 268 269 269 269 269 271 272 274 274 275 276 277 278 280 281 282 283
Height
5800 5802 5803 5804 5806 5808 5810 5812 5814 5815 5816 5818 5818 5819 5820 5820 5821 5821 5821 5822 5823 5823 5824 5824 5824 5825 5825 5826 5826 5827 5827 5828 5829 5830 5831 5832 5834 5835 5836 5836 5837 5838 5838 5839
5794 5796 5797 5799 5801 5802 5805 5807 5809 5810 5812 5813 5814 5815 5815 5816 5816 5817 5817 5818 5819 5819 5820 5820 5820 5820 5821 5821 5822 5822 5823 5824 5825 5825 5827 5828 5829 5830 5831 5832 5833 5833 5834 5834
5789 5791 5791 5793 5796 5798 5800 5802 5804 5805 5808 5808 5809 5810 5811 5811 5812 5813 5813 5814 5814 5815 5815 5815 5816 5816 5816 5816 5817 5818 5818 5819 5820 5821 5822 5824 5825 5826 5827 5828 5828 5829 5829 5830
5783 5785 5786 5791 5791 5793 5794 5796 5798 5800 5801 5802 5804 5805 5805 5806 5807 5808 5808 5809 5810 5810 5811 5811 5811 5811 5812 5812 5812 5813 5814 5815 5816 5817 5818 5819 5820 5821 5822 5823 5824 5824 5825 5825
5777 5778 5780 5784 5785 5786 5788 5790 5792 5794 5795 5797 5798 5799 5800 5800 5802 5803 5803 5804 5805 5805 5806 5806 5806 5807 5807 5808 5808 5809 5809 5810 5811 5812 5813 5814 5815 5816 5817 5818 5819 5819 5820 5820
5771 5772 5774 5778 5780 5781 5784 5784 5786 5788 5789 5791 5792 5793 5795 5796 5796 5797 5798 5799 5799 5800 5800 5801 5801 5802 5802 5803 5803 5804 5804 5805 5806 5807 5808 5809 5810 5811 5812 5813 5814 5814 5815 5816
5764 5765 5767 5771 5774 5776 5778 5779 5780 5781 5783 5785 5786 5787 5789 5790 5791 5792 5793 5793 5794 5795 5795 5796 5796 5796 5797 5798 5798 5798 5799 5800 5800 5802 5803 5804 5805 5806 5807 5808 5809 5810 5810 5811
5757 5758 5763 5765 5767 5769 5771 5772 5773 5775 5776 5778 5779 5781 5782 5783 5784 5786 5786 5787 5788 5789 5789 5790 5790 5791 5791 5792 5792 5793 5793 5794 5795 5796 5797 5798 5799 5801 5801 5803 5803 5804 5805 5805
5750 5754 5755 5757 5759 5761 5763 5764 5766 5768 5770 5771 5772 5774 5775 5777 5778 5779 5780 5781 5781 5782 5783 5783 5784 5784 5785 5786 5786 5787 5787 5789 5790 5791 5792 5793 5794 5795 5796 5797 5798 5799 5799 5799
5742 5744 5747 5749 5751 5753 5756 5758 5759 5761 5762 5764 5766 5767 5768 5770 5771 5772 5773 5773 5774 5775 5776 5777 5777 5778 5779 5779 5780 5781 5781 5782 5783 5785 5786 5787 5788 5789 5790 5791 5792 5793 5794 5794
5734 5737 5739 5742 5743 5745 5748 5750 5752 5754 5755 5757 5758 5760 5761 5762 5764 5765 5765 5766 5767 5768 5769 5770 5771 5772 5772 5773 5774 5774 5775 5776 5777 5778 5779 5781 5782 5783 5784 5785 5786 5787 5788 5788
5727 5729 5731 5733 5735 5737 5740 5742 5744 5746 5748 5750 5751 5752 5754 5755 5756 5757 5758 5759 5760 5761 5762 5763 5764 5765 5766 5767 5767 5768 5769 5770 5771 5772 5773 5774 5776 5777 5778 5779 5780 5780 5781 5782
5718 5720 5722 5725 5727 5729 5732 5734 5736 5738 5740 5742 5744 5745 5746 5748 5749 5750 5750 5751 5752 5753 5755 5756 5757 5758 5760 5760 5761 5762 5763 5764 5765 5766 5767 5768 5769 5770 5771 5772 5773 5774 5774 5775
5709 5711 5714 5717 5719 5722 5724 5726 5728 5730 5732 5734 5736 5738 5739 5741 5742 5742 5743 5744 5745 5746 5747 5748 5750 5751 5752 5753 5755 5756 5757 5758 5759 5759 5760 5761 5762 5763 5764 5765 5766 5767 5767 5768
5701 5703 5706 5709 5711 5714 5716 5718 5720 5723 5725 5726 5728 5730 5732 5733 5734 5735 5736 5737 5738 5739 5740 5741 5742 5744 5745 5746 5747 5749 5750 5751 5752 5753 5754 5754 5755 5756 5757 5758 5759 5760 5760 5760
5693 5695 5697 5701 5703 5706 5708 5710 5712 5715 5717 5719 5720 5722 5724 5725 5727 5728 5729 5729 5731 5732 5733 5734 5735 5736 5737 5739 5740 5741 5742 5744 5745 5745 5746 5747 5748 5749 5750 5751 5752 5752 5753 5753
5685 5688 5690 5693 5695 5698 5700 5703 5705 5707 5709 5711 5713 5714 5716 5717 5719 5720 5721 5722 5723 5725 5726 5727 5728 5729 5730 5731 5732 5734 5735 5736 5737 5738 5739 5740 5740 5741 5742 5743 5744 5744 5745 5745
5678 5680 5682 5684 5687 5689 5692 5695 5697 5699 5701 5703 5705 5706 5708 5709 5711 5712 5714 5715 5716 5717 5719 5720 5721 5721 5722 5723 5725 5726 5727 5728 5729 5730 5731 5732 5733 5734 5734 5735 5736 5736 5736 5736
5669 5671 5673 5676 5678 5681 5684 5686 5689 5691 5693 5695 5697 5699 5700 5702 5703 5705 5706 5707 5709 5710 5711 5712 5713 5714 5715 5716 5717 5718 5719 5720 5721 5722 5723 5724 5725 5725 5726 5727 5727 5727 5727 5727
5661 5663 5665 5668 5670 5673 5676 5678 5681 5683 5685 5687 5689 5691 5692 5693 5695 5696 5698 5699 5701 5702 5703 5704 5705 5706 5707 5708 5709 5710 5711 5712 5713 5714 5715 5716 5716 5717 5717 5718 5718 5718 5718 5717
5653 5655 5658 5660 5662 5665 5667 5670 5672 5675 5677 5679 5680 5682 5684 5685 5686 5688 5689 5691 5693 5693 5694 5695 5696 5697 5698 5699 5700 5701 5703 5704 5705 5706 5706 5707 5708 5708 5708 5708 5708 5708 5708 5707
5645 5647 5649 5651 5654 5656 5659 5661 5664 5666 5668 5670 5671 5673 5675 5677 5678 5680 5681 5682 5684 5684 5685 5687 5688 5689 5689 5690 5691 5692 5694 5695 5696 5697 5697 5698 5698 5699 5699 5699 5699 5698 5698 5697
5637 5639 5642 5643 5645 5648 5650 5653 5655 5657 5659 5661 5663 5665 5666 5668 5670 5671 5673 5674 5675 5676 5677 5678 5679 5680 5680 5681 5682 5683 5684 5686 5687 5687 5688 5688 5689 5689 5689 5689 5688 5688 5687 5687
5630 5632 5634 5636 5637 5640 5642 5644 5646 5648 5650 5652 5654 5656 5658 5659 5661 5663 5664 5665 5666 5667 5668 5669 5670 5671 5671 5672 5673 5674 5675 5676 5677 5678 5678 5678 5679 5679 5679 5678 5678 5677 5677 5676
5622 5624 5626 5628 5630 5632 5634 5636 5638 5639 5641 5643 5645 5647 5649 5651 5652 5654 5655 5656 5657 5658 5659 5660 5661 5662 5662 5663 5664 5664 5665 5666 5667 5667 5668 5668 5668 5668 5668 5668 5667 5666 5665 5664
5615 5617 5619 5621 5623 5625 5626 5628 5629 5631 5633 5635 5637 5639 5640 5642 5643 5645 5646 5647 5648 5649 5650 5651 5651 5652 5653 5654 5654 5655 5655 5656 5657 5657 5657 5658 5658 5657 5657 5656 5656 5655 5654 5653
5608 5610 5612 5614 5616 5617 5618 5620 5621 5623 5625 5626 5628 5630 5632 5634 5635 5636 5637 5638 5639 5640 5640 5641 5642 5643 5643 5644 5644 5645 5645 5646 5646 5647 5647 5647 5646 5646 5646 5645 5644 5643 5642 5641